Probability
0 0 0 0 0 0 0 0 0 0 0 0 0 0 0 0 0 0 0 0 0 0 0 0 0 0 0 0 0 0 0 0 0 0 0 0 0 0 0 0 0 0 0 0
0 0 0 0 0 0 0 0 0 0 0 0 0 0 0 0 0 0 0 0 0 0 0 0 0 0 0 0 0 0 0 0 0 0 0 0 0 0 0 0 0 0 0 0
0 0 0 0 0 0 0 0 0 0 0 0 0 0 0 0 0 0 0 0 0 0 0 0 0 0 0 0 0 0 0 0 0 0 0 0 0 0 0 0 0 0 0 0
0 0 0 0 0 0 0 0 0 0 0 0 0 0 0 0 0 0 0 0 0 0 0 0 0 0 0 0 0 0 0 0 0 0 0 0 0 0 0 0 0 0 0 0
0 0 0 0 0 0 0 0 0 0 0 0 0 0 0 0 0 0 0 0 0 0 0 0 0 0 0 0 0 0 0 0 0 0 0 0 0 0 0 0 0 0 0 0
0 0 0 0 0 0 0 0 0 0 0 0 0 0 0 0 0 0 0 0 0 0 0 0 0 0 0 0 0 0 0 0 0 0 0 0 0 0 0 0 0 0 0 0
0 0 0 0 0 0 0 0 0 0 0 0 0 0 0 0 0 0 0 0 0 0 0 0 0 0 0 0 0 0 0 0 0 0 0 0 0 0 0 0 0 0 0 0
0 0 0 0 0 0 0 0 0 0 0 0 0 0 0 0 0 0 0 0 0 0 0 0 0 0 0 0 0 0 0 0 0 0 0 0 0 0 0 0 0 0 0 0
0 0 0 0 0 0 0 0 0 0 0 0 0 0 0 0 0 0 0 0 0 0 0 0 0 0 0 0 0 0 0 0 0 0 0 0 0 0 0 0 0 0 0 0
0 0 0 0 0 0 0 0 0 0 0 0 0 0 0 0 0 0 0 0 0 0 0 0 0 0 0 0 0 0 0 0 0 0 0 0 0 0 0 0 0 0 0 0
0 0 0 0 0 0 0 0 0 0 0 0 0 0 0 0 0 0 0 0 0 0 0 0 0 0 0 0 0 0 0 0 0 0 0 0 0 0 0 0 0 0 0 0
0 0 0 0 0 0 0 0 0 0 0 0 0 0 0 0 0 0 0 0 0 0 0 0 0 0 0 0 0 0 0 0 0 0 0 0 0 0 0 0 0 0 0 0
0 0 0 0 0 0 0 0 0 0 0 0 0 0 0 0 0 0 0 0 0 0 0 0 0 0 0 0 0 0 0 0 0 0 0 0 0 0 0 0 0 0 0 0
0 0 0 0 0 0 0 0 0 0 0 0 0 0 0 0 0 0 0 0 0 0 0 0 0 0 0 0 0 0 0 0 0 0 0 0 0 0 0 0 0 0 0 0
0 0 0 0 0 0 0 0 0 0 0 0 0 0 0 0 0 0 0 0 0 0 0 0 0 0 0 0 0 0 0 0 0 0 0 0 0 0 0 0 0 0 0 0
0 0 0 0 0 0 0 0 0 0 0 0 0 0 0 0 0 0 0 0 0 0 0 0 0 0 0 0 0 0 0 0 0 0 0 0 0 0 0 0 0 0 0 0
0 0 0 0 0 0 0 0 0 0 0 0 0 0 0 0 0 0 0 0 0 0 0 0 0 0 0 0 0 0 0 0 0 0 0 0 0 0 0 0 0 0 0 0
0 0 0 0 0 0 0 0 0 0 0 0 0 0 0 0 0 0 0 0 0 0 0 0 0 0 0 0 0 0 0 0 0 0 0 0 0 0 0 0 0 0 0 0
0 0 0 0 0 0 0 0 0 0 0 0 0 0 0 0 0 0 0 0 0 0 0 0 0 0 0 0 0 0 0 0 0 0 0 0 0 0 0 0 0 0 0 0
0 0 0 0 0 0 0 0 0 0 0 0 0 0 0 0 0 0 0 0 0 0 0 0 0 0 0 0 0 0 0 0 0 0 0 0 0 0 0 0 0 0 0 0
0 0 0 0 0 0 0 0 0 0 0 0 0 0 0 0 0 0 0 0 0 0 0 0 0 0 0 0 0 0 0 0 0 0 0 0 0 0 0 0 0 0 0 0
0 0 0 0 0 0 0 0 0 0 0 0 0 0 0 0 0 0 0 0 0 0 0 0 0 0 0 0 0 0 0 0 0 0 0 0 0 0 0 0 0 0 0 0
0 0 0 0 0 0 0 0 0 0 0 0 0 0 0 0 0 0 0 0 0 0 0 0 0 0 0 0 0 0 0 0 0 0 0 0 0 0 0 0 0 0 0 0
0 0 0 0 0 0 0 0 0 0 0 0 0 0 0 0 0 0 0 0 0 0 0 0 0 0 0 0 0 0 0 0 0 0 0 0 0 0 0 0 0 0 0 0
0 0 0 0 0 0 0 0 0 0 0 0 0 0 0 0 0 0 0 0 0 0 0 0 0 0 0 0 0 0 0 0 0 0 0 0 0 0 0 0 0 0 0 0
0 0 0 0 0 0 0 0 0 0 0 0 0 0 0 0 0 0 0 0 0 0 0 0 0 0 0 0 0 0 0 0 0 0 0 0 0 0 0 0 0 0 0 0
Wind_Speed
10 11 17 20 19 9 7 8 9 7 6 8 12 14 13 9 8 10 10 10 12 14 13 9 10 11 10 11 13 14 15 14 12 10 10 10 10 9 8 8 9 10 10 10
10 20 19 12 12 10 9 10 9 4 5 7 8 14 13 12 11 12 13 14 14 12 10 9 10 11 14 15 15 15 16 16 15 13 11 8 7 7 8 7 9 11 11 11
20 10 12 11 12 16 15 15 12 6 1 3 4 11 13 12 11 12 13 13 12 14 14 12 11 13 14 16 17 16 18 17 17 14 7 6 5 4 7 9 10 12 12 12
16 8 10 14 16 17 19 12 10 8 6 6 7 11 11 11 13 16 17 14 15 14 14 12 11 12 15 17 16 17 18 17 16 16 13 13 13 13 13 10 9 10 12 12
13 11 15 18 18 15 7 7 10 10 9 8 7 10 11 6 15 17 17 17 17 16 15 15 14 15 15 15 15 16 16 17 16 17 17 17 16 14 8 7 9 11 11 13
7 5 11 11 9 10 5 5 3 5 8 17 17 13 13 11 16 10 11 15 17 16 15 16 14 12 12 12 13 13 15 17 16 18 19 19 19 16 11 11 12 11 9 10
10 9 6 6 9 10 10 8 7 10 12 14 11 13 17 10 11 13 13 14 15 15 14 14 13 13 13 13 14 14 16 18 17 18 20 20 21 18 18 15 13 11 10 11
14 13 14 10 13 13 17 16 12 10 9 5 7 16 14 8 10 10 12 12 12 12 12 13 14 14 13 14 14 15 17 18 17 19 20 19 19 15 13 15 13 12 11 12
12 11 7 11 8 12 12 16 9 3 2 4 8 9 12 6 8 10 11 11 13 13 12 13 13 13 12 13 14 16 17 17 17 18 18 18 18 17 15 14 13 11 10 9
7 6 5 7 6 9 9 8 7 10 9 11 8 9 11 9 12 12 13 15 16 13 12 13 12 12 11 11 11 12 14 16 16 16 16 14 17 17 16 13 13 13 12 10
6 6 4 8 16 17 12 13 10 7 7 8 8 11 11 13 12 14 17 16 15 14 14 13 11 10 9 8 8 10 12 13 12 14 14 14 14 14 14 13 14 13 11 12
8 6 7 9 6 8 12 14 15 12 9 7 8 13 6 9 10 11 13 13 12 13 11 9 9 7 7 7 8 9 10 11 12 12 12 13 12 11 13 14 13 12 12 12
11 8 6 4 4 6 10 13 16 12 7 7 10 14 5 5 7 9 10 11 10 10 10 8 7 7 7 7 7 8 9 10 9 9 10 11 11 12 13 13 12 11 11 11
9 6 10 12 7 8 10 12 15 15 13 14 16 17 13 10 10 9 9 10 9 9 8 7 7 7 7 7 7 7 8 7 7 8 9 10 11 12 12 10 10 10 10 10
5 6 7 7 5 5 8 12 16 19 17 16 18 21 22 16 11 10 9 9 8 9 9 9 9 8 7 7 6 6 6 6 7 8 9 10 9 8 7 7 8 7 8 9
5 4 4 6 7 8 11 14 17 20 20 19 17 22 19 17 10 10 10 9 10 11 11 10 10 8 8 8 8 7 7 7 6 8 8 7 6 6 6 7 6 6 7 7
5 4 4 6 6 4 13 17 19 17 17 19 23 27 16 15 15 15 12 11 13 14 12 11 11 10 9 9 8 8 7 6 6 7 6 5 6 6 6 5 5 6 6 6
8 6 3 3 2 13 11 8 13 18 20 19 18 19 17 19 17 12 11 13 15 13 11 10 9 9 8 6 6 5 5 6 6 6 6 6 6 6 5 5 5 5 4 4
8 8 5 4 6 9 9 6 9 13 17 15 19 22 18 14 11 14 12 12 14 12 11 10 9 8 6 5 6 6 5 5 6 6 6 6 7 6 6 6 5 4 3 3
8 7 6 5 5 9 9 6 5 6 12 8 11 17 15 8 11 19 11 8 10 9 8 8 6 5 5 5 6 7 7 7 7 7 6 6 6 6 6 6 5 3 3 3
9 9 11 10 8 10 8 5 3 8 10 7 7 10 10 11 16 16 8 7 9 9 8 7 5 5 5 4 6 7 7 8 7 5 5 5 5 6 5 5 4 4 4 4
9 8 9 8 9 11 4 1 5 6 6 6 6 8 10 12 14 12 8 7 7 6 6 5 4 4 3 3 6 7 7 5 4 5 6 5 5 5 4 5 4 4 5 4
7 8 6 8 8 3 1 3 3 3 5 6 7 9 9 11 12 10 9 8 6 5 4 3 3 3 0 1 4 6 4 4 5 6 5 5 5 5 5 5 5 4 4 4
3 2 4 5 7 5 2 2 4 5 6 7 8 9 8 9 11 10 8 7 5 4 3 1 2 2 1 0 1 2 2 4 5 6 5 5 5 5 4 3 4 4 4 4
4 2 3 6 5 4 2 1 5 7 8 9 8 7 7 8 9 8 7 6 5 4 2 0 2 2 1 1 2 2 2 3 5 5 5 5 4 5 4 3 2 3 2 3
3 4 5 6 2 3 5 4 6 7 8 9 9 9 8 6 8 7 6 5 4 3 3 3 3 3 2 3 3 3 2 2 4 5 4 4 4 4 4 4 4 6 5 6
Wind_Direction
180 197 209 207 207 213 177 188 213 215 197 193 227 242 247 241 235 240 240 235 233 237 239 230 220 213 206 202 200 200 201 200 195 197 200 203 208 206 206 206 203 200 199 197
188 215 215 202 200 209 207 213 220 233 203 205 243 253 249 236 230 230 234 236 235 238 242 230 218 210 207 207 206 205 205 202 200 204 203 203 201 204 206 205 206 204 203 200
210 212 191 189 196 207 215 217 213 205 174 232 280 274 249 245 231 236 236 236 235 231 234 232 221 214 211 211 209 208 207 205 204 202 192 185 186 192 201 208 211 209 206 205
223 215 185 196 204 204 227 210 198 192 194 229 205 264 254 236 240 236 236 235 237 236 234 231 223 216 213 215 211 210 209 207 203 198 198 196 204 213 215 210 210 204 205 208
213 189 191 206 207 195 209 167 191 202 212 236 214 248 263 215 240 238 232 232 235 235 231 231 227 221 217 213 210 209 208 208 202 200 203 205 213 220 213 200 203 206 206 208
219 192 196 209 204 188 155 132 169 205 215 236 223 229 260 212 226 235 229 229 232 232 231 233 232 224 221 212 209 207 206 209 204 203 206 209 214 215 207 205 209 210 209 210
212 220 209 169 172 178 173 178 208 214 219 235 200 216 249 217 212 217 225 228 229 230 231 233 232 225 221 213 208 205 205 210 206 204 207 211 215 215 215 213 213 210 211 213
201 214 201 189 190 190 195 195 208 214 216 233 181 223 248 221 220 222 228 232 233 233 230 232 231 227 224 217 209 205 206 210 206 205 209 212 215 215 219 217 214 213 216 217
196 219 183 197 183 173 188 208 212 229 230 233 226 255 287 243 238 235 237 239 239 237 233 234 234 229 224 218 212 207 207 209 207 206 208 211 212 214 217 215 214 215 216 213
172 206 197 181 168 203 196 173 176 207 215 233 233 232 240 229 223 228 232 235 239 238 238 237 235 231 226 221 216 209 209 210 209 207 207 209 212 214 217 215 214 215 215 209
172 193 197 177 194 196 187 194 200 210 210 213 236 246 223 221 215 216 224 229 233 234 235 236 236 233 229 223 213 208 209 210 207 206 207 209 211 212 214 216 218 217 214 210
178 184 220 218 219 205 198 204 203 217 221 220 241 258 230 216 218 219 229 233 235 237 239 238 237 234 228 221 214 210 208 208 209 205 204 208 210 208 211 217 219 215 215 213
168 185 203 225 228 206 211 206 207 218 224 225 237 259 258 237 244 238 240 244 243 244 247 246 240 233 228 222 216 212 209 209 206 198 200 205 207 208 213 217 217 215 215 215
175 193 206 214 199 183 203 207 204 210 225 235 236 255 270 262 255 254 247 246 247 247 247 247 247 238 231 226 219 214 214 207 198 193 197 204 208 211 214 215 213 213 213 214
175 206 218 238 237 203 214 217 213 218 225 233 240 244 253 254 247 246 244 243 246 251 250 246 245 242 233 228 223 215 214 202 191 190 199 209 208 205 205 205 207 207 209 213
178 199 206 244 239 231 237 231 225 226 228 235 247 255 251 253 250 249 245 237 240 245 245 245 244 240 233 226 220 212 210 198 184 193 204 202 193 193 198 201 199 200 207 209
173 174 184 239 239 241 238 224 222 223 222 223 236 245 249 251 243 240 237 234 237 240 238 237 239 235 229 222 212 209 205 182 181 192 194 188 185 192 199 195 192 202 204 202
173 174 187 227 210 232 239 219 216 228 234 230 237 249 247 246 251 247 230 228 237 239 238 237 238 239 233 217 202 192 174 172 178 184 187 185 182 187 183 181 193 199 191 194
188 176 186 203 230 260 274 240 205 215 237 232 239 250 256 260 272 263 240 230 238 237 233 234 233 233 228 209 189 167 172 172 177 188 192 187 180 179 178 184 191 184 177 186
194 186 190 206 224 236 245 247 237 209 249 251 246 254 259 254 251 260 255 233 242 246 241 237 232 222 217 211 169 166 181 180 195 198 193 180 174 174 180 183 176 165 169 180
182 196 209 217 231 254 261 269 145 194 245 272 259 263 262 242 246 270 283 244 235 236 239 235 222 215 220 192 163 177 186 200 200 177 165 164 168 170 169 163 159 155 156 158
185 189 199 199 218 245 270 186 191 242 290 301 288 278 278 276 274 280 278 265 252 245 245 232 214 221 220 173 168 184 202 201 163 154 157 161 160 155 153 152 152 152 155 160
203 198 194 201 217 232 170 218 276 318 304 307 311 306 298 291 286 288 281 275 268 253 250 227 196 199 189 150 168 191 204 159 150 149 156 155 149 148 151 153 156 155 158 163
248 243 209 231 245 252 259 293 328 327 306 307 311 310 310 299 299 299 296 291 289 289 278 232 160 165 188 84 119 188 161 149 148 152 153 152 150 145 142 145 153 157 166 169
231 230 231 244 270 298 265 325 323 320 318 319 320 316 316 315 310 308 306 310 309 316 329 43 148 152 137 73 64 54 90 135 146 145 147 147 144 142 138 132 134 147 149 162
204 204 218 242 260 268 281 321 330 323 322 322 324 328 334 335 320 318 318 325 334 350 16 44 62 77 66 62 53 37 53 126 143 142 147 148 144 140 141 138 114 90 97 100